| time (UTC) | temp F | wind direction | speed MPH | gust MPH | rain 1hr in | rain 24hr in | rain mn in | humidity % | barometer mb |
| 20260509074703 | 73 | 141 | 1.0 | 3.0 | 0.00 | 0.00 | 0.00 | 90 | 1009.7 |
| 20260509073912 | 73 | 141 | 1.0 | 3.0 | 0.00 | 0.00 | 0.00 | 90 | 1009.7 |
| 20260509071704 | 73 | 141 | 0.0 | 3.0 | 0.00 | 0.00 | 0.00 | 90 | 1010.0 |
| 20260509070205 | 73 | 141 | 2.0 | 3.0 | 0.00 | 0.00 | 0.00 | 90 | 1010.0 |
| 20260509065403 | 73 | 141 | 0.0 | 2.0 | 0.00 | 0.00 | 0.00 | 90 | 1010.1 |
| 20260509063205 | 73 | 141 | 0.0 | 2.0 | 0.00 | 0.00 | 0.00 | 90 | 1010.1 |
| 20260509061704 | 73 | 141 | 1.0 | 3.0 | 0.00 | 0.00 | 0.00 | 90 | 1010.3 |
| 20260509060205 | 73 | 137 | 0.0 | 2.0 | 0.00 | 0.00 | 0.00 | 90 | 1010.4 |
| 20260509054705 | 73 | 137 | 1.0 | 2.0 | 0.00 | 0.00 | 0.00 | 90 | 1010.5 |
| 20260509053204 | 73 | 137 | 1.0 | 2.0 | 0.00 | 0.00 | 0.00 | 90 | 1010.6 |
| 20260509051704 | 73 | 137 | 0.0 | 3.0 | 0.00 | 0.00 | 0.00 | 90 | 1010.5 |
| 20260509050206 | 72 | 137 | 2.0 | 3.0 | 0.00 | 0.00 | 0.00 | 90 | 1010.4 |
| 20260509044703 | 72 | 137 | 2.0 | 5.0 | 0.00 | 0.00 | 0.00 | 90 | 1010.6 |
| 20260509043205 | 72 | 127 | 1.0 | 5.0 | 0.00 | 0.00 | 0.00 | 90 | 1010.4 |
| 20260509041704 | 72 | 127 | 3.0 | 3.0 | 0.00 | 0.00 | 0.00 | 90 | 1010.4 |
| 20260509040205 | 72 | 127 | 2.0 | 7.0 | 0.00 | 0.00 | 0.00 | 89 | 1010.5 |
| 20260509034704 | 72 | 127 | 1.0 | 5.0 | 0.00 | 0.00 | 0.00 | 89 | 1010.3 |
| 20260509033205 | 72 | 127 | 2.0 | 7.0 | 0.00 | 0.00 | 0.00 | 89 | 1010.3 |
| 20260509031703 | 72 | 127 | 2.0 | 5.0 | 0.00 | 0.00 | 0.00 | 89 | 1010.2 |
| 20260509030205 | 72 | 127 | 3.0 | 7.0 | 0.00 | 0.00 | 0.00 | 89 | 1010.0 |
| 20260509030124 | 72 | 123 | 2.0 | 7.0 | 0.00 | 0.00 | 0.00 | 89 | 1009.9 |
| 20260509023205 | 72 | 130 | 1.0 | 5.0 | 0.00 | 0.00 | 0.00 | 89 | 1009.8 |
| 20260509021703 | 72 | 130 | 3.0 | 13.0 | 0.00 | 0.00 | 0.00 | 89 | 1009.5 |
| 20260509020205 | 73 | 124 | 1.0 | 5.0 | 0.00 | 0.00 | 0.00 | 89 | 1009.8 |
| 20260509014703 | 73 | 124 | 1.0 | 3.0 | 0.00 | 0.00 | 0.00 | 89 | 1009.7 |
| 20260509013206 | 73 | 124 | 2.0 | 3.0 | 0.00 | 0.00 | 0.00 | 88 | 1009.6 |
| 20260509011703 | 73 | 124 | 3.0 | 7.0 | 0.00 | 0.00 | 0.00 | 88 | 1009.3 |
| 20260509010205 | 73 | 124 | 3.0 | 5.0 | 0.00 | 0.00 | 0.00 | 88 | 1009.3 |
| 20260509004704 | 74 | 124 | 2.0 | 7.0 | 0.00 | 0.00 | 0.00 | 87 | 1009.2 |
| 20260509003204 | 74 | 124 | 3.0 | 5.0 | 0.00 | 0.00 | 0.00 | 86 | 1009.4 |
| 20260509001703 | 74 | 124 | 2.0 | 7.0 | 0.00 | 0.00 | 0.00 | 85 | 1009.6 |
| 20260509000204 | 75 | 124 | 4.0 | 7.0 | 0.00 | 0.00 | 0.00 | 84 | 1009.4 |
| 20260508234704 | 75 | 141 | 3.0 | 5.0 | 0.00 | 0.00 | 0.00 | 83 | 1009.5 |
| 20260508233205 | 76 | 113 | 2.0 | 5.0 | 0.00 | 0.00 | 0.00 | 82 | 1009.6 |
| 20260508231704 | 76 | 114 | 2.0 | 7.0 | 0.00 | 0.00 | 0.00 | 81 | 1009.6 |
| 20260508230204 | 76 | 79 | 2.0 | 5.0 | 0.00 | 0.00 | 0.00 | 81 | 1009.4 |
| 20260508224703 | 76 | 114 | 3.0 | 9.0 | 0.00 | 0.00 | 0.00 | 80 | 1009.4 |
| 20260508223205 | 77 | 121 | 2.0 | 5.0 | 0.00 | 0.00 | 0.00 | 80 | 1009.3 |
| 20260508221703 | 77 | 109 | 3.0 | 5.0 | 0.00 | 0.00 | 0.00 | 79 | 1009.5 |
| 20260508220205 | 77 | 106 | 2.0 | 5.0 | 0.00 | 0.00 | 0.00 | 79 | 1009.5 |
| 20260508214703 | 77 | 106 | 2.0 | 5.0 | 0.00 | 0.00 | 0.00 | 79 | 1009.5 |
| 20260508213206 | 77 | 106 | 3.0 | 5.0 | 0.00 | 0.00 | 0.00 | 78 | 1009.8 |
| 20260508211703 | 78 | 102 | 2.0 | 5.0 | 0.00 | 0.00 | 0.00 | 77 | 1009.8 |
| 20260508210205 | 78 | 102 | 1.0 | 5.0 | 0.00 | 0.00 | 0.00 | 77 | 1009.7 |
| 20260508205353 | 78 | 79 | 2.0 | 5.0 | 0.00 | 0.00 | 0.00 | 78 | 1009.9 |
| 20260508203205 | 78 | 76 | 2.0 | 7.0 | 0.00 | 0.00 | 0.00 | 77 | 1009.9 |
| 20260508201704 | 77 | 134 | 0.0 | 7.0 | 0.00 | 0.00 | 0.00 | 76 | 1010.3 |
| 20260508200204 | 77 | 117 | 2.0 | 7.0 | 0.00 | 0.00 | 0.00 | 77 | 1010.6 |
| 20260508194704 | 78 | 65 | 2.0 | 7.0 | 0.00 | 0.00 | 0.00 | 76 | 1010.4 |
| 20260508193901 | 78 | 158 | 3.0 | 5.0 | 0.00 | 0.00 | 0.00 | 76 | 1010.8 |
| 20260508192405 | 77 | 127 | 2.0 | 5.0 | 0.00 | 0.00 | 0.00 | 77 | 1010.9 |
| 20260508190206 | 77 | 127 | 2.0 | 7.0 | 0.00 | 0.00 | 0.00 | 76 | 1011.0 |
| 20260508184703 | 76 | 145 | 1.0 | 7.0 | 0.00 | 0.00 | 0.00 | 77 | 1011.0 |
| 20260508183204 | 76 | 113 | 3.0 | 7.0 | 0.00 | 0.00 | 0.00 | 77 | 1011.1 |
| 20260508181704 | 74 | 113 | 0.0 | 5.0 | 0.00 | 0.00 | 0.00 | 80 | 1011.2 |
| 20260508181605 | 72 | 113 | 1.0 | 7.0 | 0.00 | 0.00 | 0.00 | 80 | 1011.5 |
| 20260508174704 | 72 | 144 | 0.0 | 5.0 | 0.00 | 0.00 | 0.00 | 80 | 1011.9 |
| 20260508173207 | 72 | 138 | 1.0 | 5.0 | 0.00 | 0.00 | 0.00 | 80 | 1012.4 |
| 20260508171703 | 72 | 109 | 3.0 | 7.0 | 0.00 | 0.00 | 0.00 | 80 | 1012.1 |
| 20260508170205 | 72 | 106 | 4.0 | 7.0 | 0.00 | 0.00 | 0.00 | 80 | 1012.1 |
| 20260508164703 | 71 | 106 | 2.0 | 5.0 | 0.00 | 0.00 | 0.00 | 81 | 1012.4 |
| 20260508163204 | 71 | 103 | 3.0 | 7.0 | 0.00 | 0.00 | 0.00 | 80 | 1012.6 |
| 20260508161704 | 71 | 103 | 3.0 | 5.0 | 0.00 | 0.00 | 0.00 | 80 | 1012.7 |
| 20260508160205 | 70 | 32 | 3.0 | 7.0 | 0.00 | 0.00 | 0.00 | 81 | 1012.6 |
| 20260508154704 | 69 | 80 | 4.0 | 9.0 | 0.00 | 0.00 | 0.00 | 81 | 1013.0 |
| 20260508153205 | 68 | 90 | 2.0 | 9.0 | 0.00 | 0.00 | 0.00 | 82 | 1013.4 |
| 20260508151704 | 68 | 351 | 4.0 | 13.0 | 0.00 | 0.00 | 0.00 | 83 | 1013.6 |
| 20260508150902 | 67 | 345 | 2.0 | 11.0 | 0.00 | 0.00 | 0.00 | 83 | 1013.6 |
| 20260508144704 | 67 | 358 | 2.0 | 11.0 | 0.00 | 0.00 | 0.00 | 84 | 1013.7 |
| 20260508143210 | 67 | 0 | 3.0 | 11.0 | 0.00 | 0.00 | 0.00 | 84 | 1014.0 |
| 20260508141704 | 67 | 1 | 3.0 | 13.0 | 0.00 | 0.00 | 0.00 | 83 | 1013.9 |
| 20260508140207 | 67 | 0 | 3.0 | 9.0 | 0.00 | 0.00 | 0.00 | 84 | 1014.1 |
| 20260508134703 | 67 | 358 | 2.0 | 7.0 | 0.00 | 0.00 | 0.00 | 83 | 1013.8 |
| 20260508133205 | 67 | 0 | 3.0 | 7.0 | 0.00 | 0.00 | 0.00 | 84 | 1013.4 |
| 20260508132402 | 67 | 34 | 2.0 | 3.0 | 0.00 | 0.00 | 0.00 | 84 | 1013.4 |
| 20260508130205 | 66 | 31 | 1.0 | 5.0 | 0.00 | 0.00 | 0.00 | 83 | 1013.2 |
| 20260508124704 | 66 | 30 | 2.0 | 3.0 | 0.00 | 0.00 | 0.00 | 84 | 1012.7 |
| 20260508123206 | 66 | 30 | 2.0 | 9.0 | 0.00 | 0.00 | 0.00 | 83 | 1013.3 |
| 20260508122404 | 66 | 171 | 3.0 | 5.0 | 0.00 | 0.00 | 0.00 | 82 | 1013.4 |
| 20260508120912 | 66 | 118 | 2.0 | 3.0 | 0.00 | 0.00 | 0.00 | 81 | 1013.7 |
| 20260508115355 | 67 | 117 | 0.0 | 3.0 | 0.00 | 0.00 | 0.00 | 79 | 1013.5 |
| 20260508113205 | 67 | 117 | 0.0 | 5.0 | 0.00 | 0.00 | 0.00 | 78 | 1013.8 |
| 20260508111702 | 67 | 69 | 5.0 | 9.0 | 0.00 | 0.00 | 0.00 | 78 | 1013.3 |
| 20260508110205 | 67 | 357 | 1.0 | 14.0 | 0.00 | 0.00 | 0.00 | 79 | 1012.9 |
| 20260508104703 | 67 | 4 | 2.0 | 9.0 | 0.00 | 0.00 | 0.00 | 78 | 1012.8 |
| 20260508103205 | 67 | 20 | 3.0 | 7.0 | 0.00 | 0.00 | 0.00 | 78 | 1013.4 |
| 20260508103102 | 68 | 6 | 5.0 | 7.0 | 0.00 | 0.00 | 0.00 | 78 | 1013.6 |
| 20260508100205 | 68 | 69 | 3.0 | 5.0 | 0.00 | 0.00 | 0.00 | 79 | 1012.7 |
| 20260508094703 | 68 | 79 | 2.0 | 3.0 | 0.00 | 0.00 | 0.00 | 78 | 1013.0 |
| 20260508093206 | 67 | 79 | 0.0 | 5.0 | 0.00 | 0.00 | 0.00 | 79 | 1013.2 |
| 20260508091703 | 68 | 85 | 2.0 | 3.0 | 0.00 | 0.00 | 0.00 | 79 | 1012.7 |
| 20260508090206 | 68 | 85 | 1.0 | 5.0 | 0.00 | 0.00 | 0.00 | 78 | 1012.9 |
| 20260508084703 | 68 | 89 | 1.0 | 5.0 | 0.00 | 0.00 | 0.00 | 78 | 1013.1 |
| 20260508083902 | 68 | 48 | 0.0 | 5.0 | 0.00 | 0.00 | 0.00 | 77 | 1013.2 |
| 20260508081704 | 68 | 61 | 0.0 | 3.0 | 0.00 | 0.00 | 0.00 | 77 | 1012.9 |
| 20260508080205 | 68 | 62 | 2.0 | 5.0 | 0.00 | 0.00 | 0.00 | 77 | 1012.9 |